Simultaneous Nadir Overpasses (SNOs) Predictions

Prediction of SNOs between METOP-B and NOAA-19 Satellite Orbit:

Table of predicted SNOs for the next 14.0 days since TLE Epoch: 9/1/2017
Index Date (METOP-B) Time (METOP-B) Lat,Lon (METOP-B) SZA (METOP-B ) Date (NOAA-19) Time (NOAA-19) Lat,Lon (NOAA-19) SZA (NOAA-19 ) Distance(km) Time Diff (sec)
1 09/08/2017 17:57:03 77.54, -83.38 72.14 09/08/2017 17:55:52 77.54, -83.33 72.14 1.22 71
2 09/08/2017 18:47:45 -77.54, 83.93 107.85 09/08/2017 18:46:56 -77.54, 83.92 107.86 0.42 49
3 09/08/2017 19:38:25 77.52,-108.81 72.15 09/08/2017 19:37:53 77.53,-108.73 72.15 1.88 32
4 09/08/2017 20:29:07 -77.52, 58.50 107.85 09/08/2017 20:28:57 -77.52, 58.51 107.85 0.36 10
5 09/08/2017 21:19:46 77.50,-134.25 72.15 09/08/2017 21:19:53 77.51,-134.14 72.16 2.52 7
6 09/08/2017 22:10:28 -77.50, 33.07 107.84 09/08/2017 22:10:57 -77.50, 33.11 107.84 1.00 29
7 09/08/2017 23:01:08 77.48,-159.68 72.16 09/08/2017 23:01:54 77.49,-159.55 72.17 3.16 46
8 09/08/2017 23:51:50 -77.48, 7.64 107.84 09/08/2017 23:52:58 -77.48, 7.70 107.83 1.65 68




NCC Satellite Simultaneous Nadir Overpasses (SNOs) Prediction Service
